Find STARLINK-37853

NORAD ID: 799500943 Int'l Des: 2026-130W Constellation: starlink operational

Current View

Loading 3D Globe...

About STARLINK-37853

STARLINK-37853 (NORAD 799500943) is a starlink constellation satellite launched Jun 7, 2026

About STARLINK-37853

Description loading...

Upcoming Passes

Passes for default location (London). Set your location on the main map for personalized predictions.

Altitude History

Loading altitude history...

Two-Line Element Set

1 99999C 2026130W 26163.05187500 .00469490 00000-0 696870-4 0 1638
2 99999 97.2796 182.7640 0011501 274.7156 131.8160 16.04515202 12
Epoch: Jun 12, 2026 • Age: 5 hours